Wind_Speed
26 27 27 28 28 28 30 31 32 33 34 35 36 38 38 38 39 40 41 42 43 43 43 43 43 43 43 42 42 42 42 41 41 42 43 44 44 45 44 42 40 41
28 28 29 29 29 30 31 32 33 34 35 36 38 39 40 40 41 42 43 44 45 46 46 46 46 46 45 44 43 42 42 42 43 43 44 45 45 46 46 45 42 41
29 29 30 30 31 31 32 33 34 35 36 37 39 40 41 42 43 44 45 46 48 48 47 47 47 47 47 46 45 43 43 43 43 45 45 46 47 47 47 47 45 44
31 31 32 32 33 33 34 35 35 36 37 39 40 41 43 43 44 45 46 48 49 50 49 48 47 47 46 46 45 45 45 44 45 46 48 48 49 49 49 47 46 47
33 34 34 35 35 36 36 36 37 38 39 40 41 43 44 45 46 46 47 48 50 51 50 49 47 47 46 45 45 45 45 46 47 48 49 51 52 52 51 49 48 49
35 36 37 37 38 38 38 38 39 40 41 42 43 44 45 46 47 48 48 49 51 51 52 50 48 47 46 45 44 44 45 47 49 50 51 53 54 53 52 51 51 51
38 39 39 40 40 40 40 40 41 42 43 44 46 46 47 48 49 50 51 51 51 52 52 51 49 48 46 45 44 44 45 46 49 51 52 53 52 51 52 54 54 53
41 41 41 42 42 42 42 42 43 43 45 46 48 48 49 50 51 51 52 53 54 53 53 52 51 49 47 46 46 46 46 48 50 51 53 54 52 51 54 54 53 50
43 44 44 44 44 44 44 44 45 46 46 48 49 50 51 52 53 53 54 55 56 56 55 53 52 50 48 47 48 48 49 50 52 53 54 54 52 53 54 52 50 48
46 46 46 46 46 46 46 46 47 48 48 49 50 52 52 53 54 55 55 56 56 57 56 55 53 51 49 49 50 51 51 52 54 55 55 54 53 54 54 52 50 49
48 48 48 48 48 48 48 48 49 50 50 50 51 52 54 54 55 56 57 57 57 57 57 55 53 51 51 51 52 53 54 55 57 57 58 57 55 54 54 53 52 51
50 50 50 50 50 50 50 50 51 52 52 52 52 53 54 56 56 57 58 59 58 58 57 55 52 51 52 52 53 54 56 58 59 59 60 58 54 53 54 54 54 53
52 52 52 52 53 53 53 52 52 53 54 54 54 53 55 57 58 59 59 60 59 58 57 56 52 51 52 53 54 56 58 60 61 61 60 58 55 55 56 56 56 56
54 54 54 54 55 55 55 55 55 55 56 57 57 56 56 57 59 61 61 60 59 59 58 55 53 52 54 54 55 57 59 60 61 62 61 59 58 58 57 57 58 58
56 56 57 57 57 57 57 57 57 57 58 59 59 59 58 59 61 62 62 61 60 60 58 56 55 55 55 56 57 58 59 60 62 62 62 61 61 60 58 59 60 60
58 59 59 59 59 60 59 59 59 59 60 61 62 62 61 61 62 64 64 63 61 60 59 58 58 57 57 57 58 59 59 61 62 62 62 62 62 60 59 61 62 62
60 61 61 61 61 62 62 62 62 61 61 62 64 65 64 63 63 63 64 64 62 61 60 59 59 59 58 58 58 57 58 61 62 62 61 61 60 59 61 64 64 63
63 63 63 63 63 63 64 64 64 63 63 64 65 66 65 64 63 62 63 64 63 62 61 60 60 59 59 59 57 56 58 60 60 59 59 58 58 60 64 66 64 63
65 65 65 65 65 65 66 66 66 65 65 66 67 67 66 65 64 63 63 62 63 63 61 60 60 60 60 58 55 56 60 59 57 56 56 58 59 62 65 65 64 64
67 67 67 67 67 67 68 68 68 67 67 68 68 67 67 67 66 65 64 63 62 62 62 61 61 61 60 56 54 58 62 60 56 53 55 59 61 63 63 64 65 66
69 69 69 69 69 70 71 71 70 70 69 69 69 68 68 69 68 67 66 64 63 62 62 62 61 61 60 55 55 59 62 61 57 54 55 59 62 64 64 62 64 65
70 71 71 71 71 72 74 74 74 73 72 70 69 68 68 69 69 69 67 66 64 63 63 62 62 63 61 54 54 59 61 61 59 56 58 63 65 65 63 61 63 63
71 72 73 73 74 75 76 77 76 76 74 72 70 68 68 68 70 69 68 67 67 65 63 62 63 65 61 56 58 62 62 62 62 60 63 66 64 61 60 62 64 63
72 73 75 76 77 78 79 79 79 78 76 75 72 70 69 68 69 69 68 68 68 67 65 64 65 67 65 64 65 66 64 66 67 65 64 63 59 57 60 64 66 64
73 75 76 78 79 81 81 81 81 79 77 76 74 73 72 69 68 69 68 68 69 68 67 66 67 69 69 69 68 66 66 69 68 63 59 57 56 59 64 68 68 67
76 77 78 79 80 81 80 80 79 78 77 77 77 76 73 71 69 69 69 69 69 70 69 69 69 71 72 71 70 69 69 71 67 59 56 57 61 64 68 70 71 68
Wind_Direction
314 316 318 319 320 319 319 318 319 320 322 323 324 325 325 326 326 327 328 328 329 329 329 327 324 322 320 319 319 320 320 321 322 322 322 322 322 322 321 320 319 317
312 314 316 316 316 316 315 316 317 319 321 322 323 323 323 324 325 326 326 327 328 328 328 327 325 323 321 320 320 320 320 322 323 323 323 322 321 322 322 320 317 313
310 312 313 312 312 313 313 314 316 319 321 321 321 322 322 322 323 324 325 326 326 326 326 325 324 323 321 320 320 321 321 322 323 323 322 322 321 322 322 320 315 310
309 310 310 309 310 310 311 313 316 318 319 320 320 320 320 321 322 323 324 324 324 324 324 324 323 322 320 320 320 320 321 321 321 321 322 321 321 320 320 319 315 311
307 307 307 307 308 309 311 313 315 317 318 318 319 319 319 319 320 321 322 322 322 323 323 323 322 320 319 318 319 319 320 319 319 320 321 320 320 319 319 319 316 313
304 304 304 305 306 308 311 313 314 316 316 317 317 317 318 319 319 320 320 321 321 322 322 321 320 319 318 317 317 318 318 318 319 320 320 320 319 318 318 318 316 314
301 301 302 304 305 307 310 312 313 314 315 316 316 316 317 317 318 318 319 319 320 321 321 320 319 318 317 316 317 317 318 319 319 320 320 320 319 319 319 318 316 315
298 299 301 302 305 307 309 310 311 313 314 314 315 315 316 317 317 317 318 319 320 320 320 319 318 317 317 316 317 318 318 319 319 319 320 320 319 318 320 320 318 317
296 298 300 302 303 305 307 308 310 311 312 313 313 314 315 316 316 316 317 318 319 320 319 319 319 319 318 317 318 318 318 318 318 318 320 320 318 317 320 321 319 316
295 297 299 301 302 304 305 307 308 309 310 311 312 313 314 315 315 315 316 317 319 319 319 319 319 319 319 318 317 317 316 316 316 316 318 319 317 316 318 320 319 316
294 296 298 300 301 302 304 305 306 307 308 309 310 311 312 313 313 314 315 317 318 319 319 319 319 318 318 317 316 316 315 315 315 315 317 317 316 316 317 318 318 315
293 295 297 298 299 300 301 303 304 305 306 307 309 310 311 312 312 313 314 317 319 319 318 318 317 316 317 317 316 315 315 315 315 316 318 317 316 316 316 316 317 314
292 294 295 296 297 298 299 301 302 303 305 306 307 308 310 311 312 313 314 316 318 318 317 316 316 315 316 316 315 315 315 316 316 317 318 317 314 315 316 315 315 315
291 292 293 295 296 296 298 300 301 303 304 305 307 308 309 311 312 313 314 316 317 317 316 315 315 316 315 315 315 315 315 316 316 317 318 317 314 314 314 315 315 315
290 291 292 293 294 296 298 299 301 302 304 305 307 308 310 311 312 313 314 315 316 316 316 315 315 315 315 315 315 315 316 317 317 317 316 315 314 312 313 315 316 316
288 290 291 292 294 296 297 299 300 302 304 306 307 308 310 312 312 313 314 315 316 316 315 315 315 315 314 315 315 316 317 318 317 316 314 313 312 311 312 315 316 315
287 289 290 292 294 295 297 299 300 302 304 306 306 308 310 311 311 312 313 314 314 314 314 314 314 314 314 315 315 315 316 318 318 315 313 313 312 311 313 315 315 315
287 288 290 292 294 296 297 299 300 303 304 305 306 307 308 308 309 310 311 312 312 312 312 313 313 313 314 317 316 313 314 317 318 314 312 313 312 311 313 314 314 314
287 289 291 293 294 296 297 298 300 302 303 303 304 305 306 307 308 309 310 310 310 311 311 313 312 312 316 318 314 312 313 315 315 313 311 312 311 311 311 311 312 314
288 290 292 294 295 296 297 297 299 300 301 301 303 304 306 307 308 309 309 309 310 310 311 312 312 313 318 315 307 309 314 315 313 311 309 309 309 309 309 309 312 314
290 291 293 294 295 296 296 297 298 299 300 301 303 304 306 307 308 309 309 309 309 309 310 312 311 313 317 312 304 307 313 314 313 309 305 307 308 308 308 310 312 313
291 292 293 294 295 295 296 297 297 298 299 300 302 303 305 307 307 308 308 308 308 309 310 312 311 313 316 311 305 307 309 311 313 308 303 306 307 307 309 311 313 313
291 292 293 294 295 295 296 296 297 298 299 299 301 303 305 306 306 307 308 308 308 309 311 311 311 313 314 310 306 308 310 311 311 306 302 304 305 306 308 310 313 313
291 292 293 294 295 295 296 296 297 298 298 300 301 303 304 305 306 306 307 308 308 310 311 311 311 312 313 312 311 312 312 312 311 308 306 306 305 306 308 309 311 310
291 292 293 294 294 295 295 296 297 298 300 301 302 303 305 305 305 305 306 307 308 309 310 311 311 311 312 314 314 313 312 312 313 312 310 307 305 304 305 307 309 308
290 291 292 293 294 294 295 297 298 299 300 301 302 303 305 305 305 305 306 307 308 309 310 311 311 311 312 313 313 312 312 312 313 311 305 301 301 301 303 307 309 306
Height
10970 10969 10968 10967 10966 10964 10963 10961 10960 10958 10957 10956 10954 10953 10951 10950 10948 10946 10944 10942 10940 10938 10936 10934 10932 10930 10928 10926 10924 10921 10919 10916 10914 10913 10910 10908 10906 10904 10901 10900 10898 10895
10968 10967 10966 10965 10963 10962 10960 10959 10958 10956 10955 10954 10952 10951 10949 10947 10945 10943 10941 10939 10936 10934 10932 10930 10927 10925 10923 10921 10919 10917 10915 10913 10910 10908 10906 10904 10902 10899 10897 10895 10893 10891
10966 10965 10964 10962 10961 10959 10958 10956 10955 10954 10953 10951 10950 10948 10946 10944 10942 10940 10938 10935 10933 10931 10929 10927 10924 10921 10919 10917 10915 10913 10912 10909 10907 10904 10902 10900 10897 10894 10892 10890 10887 10885
10963 10962 10961 10959 10958 10957 10955 10954 10953 10952 10950 10949 10947 10945 10943 10941 10939 10938 10935 10933 10930 10928 10926 10924 10921 10918 10916 10914 10911 10909 10907 10905 10903 10901 10898 10895 10892 10889 10887 10885 10882 10879
10960 10959 10958 10956 10955 10954 10953 10951 10950 10949 10947 10946 10944 10942 10940 10938 10936 10935 10933 10930 10927 10924 10922 10921 10918 10915 10913 10911 10909 10906 10903 10900 10898 10896 10893 10890 10887 10884 10882 10880 10877 10874
10956 10955 10954 10953 10952 10951 10950 10949 10947 10945 10944 10942 10941 10939 10937 10935 10933 10931 10929 10927 10925 10921 10919 10916 10914 10912 10909 10908 10906 10903 10900 10897 10893 10891 10889 10886 10882 10880 10877 10875 10872 10869
10953 10952 10951 10950 10949 10948 10947 10945 10943 10942 10940 10938 10937 10935 10934 10932 10930 10927 10925 10923 10921 10919 10915 10912 10910 10908 10905 10902 10901 10899 10896 10893 10889 10886 10884 10882 10878 10876 10873 10870 10867 10864
10949 10948 10947 10946 10945 10944 10943 10941 10940 10938 10937 10935 10933 10931 10929 10927 10926 10923 10921 10918 10916 10914 10911 10908 10905 10903 10900 10897 10895 10894 10891 10888 10885 10882 10880 10877 10874 10872 10869 10866 10862 10859
10945 10944 10943 10943 10942 10941 10939 10938 10936 10935 10934 10932 10930 10928 10926 10923 10921 10919 10916 10914 10911 10908 10906 10903 10900 10898 10896 10893 10890 10888 10886 10883 10880 10878 10875 10872 10870 10867 10864 10862 10858 10855
10940 10940 10939 10938 10937 10936 10936 10934 10932 10931 10930 10929 10927 10924 10922 10919 10917 10914 10912 10910 10907 10903 10901 10898 10895 10892 10890 10888 10885 10883 10881 10878 10875 10873 10870 10867 10865 10861 10858 10856 10853 10850
10936 10935 10935 10934 10933 10932 10931 10930 10928 10926 10925 10925 10924 10921 10918 10916 10913 10910 10907 10905 10903 10899 10895 10893 10890 10888 10886 10884 10881 10879 10876 10873 10870 10867 10865 10862 10859 10857 10853 10851 10848 10845
10932 10931 10930 10929 10928 10927 10926 10925 10924 10922 10921 10921 10920 10918 10915 10911 10908 10906 10902 10900 10898 10894 10891 10889 10887 10884 10882 10880 10877 10874 10871 10868 10864 10861 10858 10855 10853 10851 10848 10845 10842 10840
10927 10926 10925 10925 10923 10922 10921 10921 10920 10918 10916 10916 10915 10914 10911 10907 10903 10901 10898 10895 10893 10890 10887 10884 10883 10880 10878 10875 10873 10869 10865 10862 10858 10855 10852 10849 10846 10844 10841 10839 10836 10834
10922 10921 10920 10920 10918 10917 10916 10915 10915 10914 10912 10910 10908 10908 10907 10903 10898 10895 10893 10891 10888 10885 10882 10879 10877 10876 10873 10871 10868 10864 10860 10856 10851 10847 10845 10842 10840 10837 10835 10832 10830 10827
10917 10916 10915 10914 10913 10911 10910 10910 10909 10908 10907 10904 10902 10900 10900 10898 10893 10889 10887 10886 10883 10880 10877 10874 10872 10870 10868 10866 10863 10859 10854 10850 10845 10841 10837 10835 10833 10830 10828 10826 10823 10820
10911 10910 10909 10909 10907 10906 10905 10904 10903 10902 10901 10898 10895 10893 10892 10892 10889 10884 10881 10879 10878 10875 10872 10869 10867 10864 10863 10861 10858 10853 10849 10844 10838 10834 10830 10827 10825 10823 10821 10819 10816 10813
10905 10904 10903 10902 10902 10900 10899 10897 10897 10897 10895 10892 10888 10886 10886 10886 10885 10881 10877 10873 10872 10870 10867 10865 10862 10859 10858 10855 10851 10847 10843 10838 10833 10827 10823 10820 10818 10815 10814 10812 10809 10806
10899 10898 10897 10896 10896 10894 10893 10890 10889 10889 10889 10886 10883 10881 10880 10880 10879 10878 10874 10870 10866 10864 10863 10861 10857 10854 10852 10849 10845 10841 10838 10834 10828 10822 10817 10814 10811 10808 10805 10803 10801 10798
10892 10892 10892 10891 10890 10889 10887 10884 10883 10883 10882 10881 10879 10877 10875 10874 10873 10871 10870 10866 10862 10858 10857 10856 10851 10848 10847 10844 10840 10835 10832 10829 10824 10817 10812 10808 10805 10802 10799 10796 10794 10792
10886 10886 10886 10885 10884 10882 10880 10878 10878 10877 10877 10875 10874 10871 10868 10866 10865 10864 10862 10860 10858 10854 10851 10850 10845 10842 10843 10841 10836 10831 10827 10823 10819 10814 10808 10804 10800 10797 10794 10790 10787 10784
10880 10879 10879 10878 10877 10875 10872 10871 10871 10871 10870 10868 10867 10865 10862 10858 10856 10855 10853 10852 10852 10849 10846 10844 10839 10836 10837 10836 10831 10825 10820 10816 10813 10810 10805 10800 10796 10792 10789 10785 10782 10778
10875 10873 10872 10871 10869 10867 10864 10863 10863 10862 10862 10861 10860 10859 10857 10853 10848 10847 10845 10843 10843 10844 10842 10837 10832 10829 10831 10830 10823 10818 10814 10809 10806 10803 10798 10794 10790 10785 10781 10779 10777 10774
10869 10866 10864 10863 10861 10859 10857 10855 10854 10854 10853 10853 10854 10854 10853 10849 10843 10840 10838 10835 10834 10835 10835 10831 10825 10823 10825 10824 10818 10813 10808 10802 10799 10797 10792 10787 10783 10779 10775 10772 10770 10768
10863 10860 10858 10856 10853 10851 10848 10846 10845 10846 10845 10844 10845 10846 10846 10844 10839 10834 10831 10828 10825 10825 10825 10823 10818 10815 10815 10814 10809 10804 10800 10795 10792 10790 10785 10779 10775 10772 10768 10765 10764 10762
10856 10854 10851 10849 10846 10842 10840 10838 10836 10836 10835 10835 10836 10836 10836 10836 10833 10828 10826 10823 10818 10816 10816 10815 10811 10807 10805 10804 10799 10795 10791 10787 10784 10782 10776 10772 10770 10767 10763 10759 10757 10755
10849 10847 10845 10842 10839 10835 10832 10830 10827 10826 10826 10825 10825 10826 10826 10826 10824 10821 10819 10817 10812 10809 10808 10808 10804 10799 10796 10795 10792 10787 10783 10778 10776 10775 10771 10768 10765 10761 10757 10752 10749 10746